Flag for U.S.A. Weather past 2 weeks in Sheboygan, Wisconsin, U.S.A.

Now
72 °F

Broken clouds.


Feels Like: 71 °F
Forecast: 64 / 76 °F
Wind: 13 mph from South

Location: Sheboygan County Memorial Airport

Current Time: Aug 29, 2014 at 9:21:11 AM

Latest Report: Aug 29, 2014 at 8:53 AM


Visibility: 10 mi

Pressure: 29.95 "Hg

Humidity: 84%

Dew point: 67 °F

Location of SheboyganLocation

Historic Weather in Sheboygan — Graph

°F

Sheboygan temperature yesterday

Maximum temperature yesterday: 70 °F (at 12:53 PM)
Minimum temperature yesterday: 54 °F (at 12:53 AM)
Average temperature yesterday: 63 °F

Past Weeks' High & Low Weather Summary

 TemperatureHumidityPressure
High83 °F (Aug 16, 3:53 PM)100% (Aug 17, 9:04 PM)30.19 "Hg (Aug 17, 9:04 PM)
Low49 °F (Aug 15, 4:53 AM)39% (Aug 14, 1:53 PM)29.65 "Hg (Aug 19, 5:53 AM)
Average67 °F82%29.97 "Hg
* Reported Aug 14 7:53 AM — Aug 29 7:53 AM, Sheboygan, Weather by CustomWeather, © 2014

Note: Actual official high and low records may vary slightly from our data, if they occured in-between our weather recording intervals... More about our weather records

Advertising

Sheboygan weather history for previous 24 hours

 ConditionsComfort  
Time TempWeatherWind HumidityBarometerVisibility
7:53 AM
Aug 29
69 °FLow clouds.12 mph90%29.96 "Hg8 mi
6:53 AM68 °FLow clouds.9 mph90%29.96 "Hg8 mi
5:53 AM67 °FPassing clouds.10 mph90%29.96 "Hg10 mi
4:53 AM66 °FOvercast.7 mph84%29.96 "Hg10 mi
3:53 AM66 °FPassing clouds.7 mph81%29.97 "Hg10 mi
2:53 AM65 °FPassing clouds.6 mph81%29.98 "Hg10 mi
1:53 AM64 °FLight rain. Overcast.3 mph84%30.01 "Hg10 mi
12:53 AM64 °FMostly cloudy.5 mph84%30.03 "Hg10 mi
11:53 PM
Aug 28
64 °FOvercast.3 mph81%30.05 "Hg10 mi
10:53 PM63 °FPassing clouds.5 mph81%30.05 "Hg10 mi
9:53 PM63 °FPassing clouds.5 mph81%30.06 "Hg10 mi
8:53 PM63 °FLight rain. Overcast.No wind81%30.08 "Hg10 mi
7:53 PM63 °FPartly sunny.No wind78%30.09 "Hg10 mi
6:53 PM65 °FPartly sunny.3 mph68%30.09 "Hg10 mi
5:53 PM65 °FSunny.3 mph66%30.09 "Hg10 mi
4:53 PM66 °FSunny.8 mph63%30.10 "Hg10 mi
3:53 PM67 °FOvercast.8 mph61%30.13 "Hg10 mi
2:53 PM67 °FOvercast.10 mph59%30.14 "Hg10 mi
1:53 PM70 °FSunny.9 mph57%30.15 "Hg10 mi
12:53 PM70 °FSunny.8 mph59%30.16 "Hg10 mi
11:53 AM69 °FSunny.10 mph59%30.17 "Hg10 mi
10:53 AM68 °FBroken clouds.10 mph63%30.17 "Hg10 mi
9:53 AM67 °FPartly sunny.8 mph68%30.16 "Hg10 mi
Weather by CustomWeather, © 2014

See weather overviewHow to use our weather pages